Flag for Canada Weather past 2 weeks in Vaughan, Ontario, Canada

Now
79 °F

Partly sunny.


Feels Like: 81 °F
Forecast: N/A
Wind: 10 mph from South

Location: Toronto Buttonville

Current Time: Sep 1, 2014 at 6:05:42 PM

Latest Report: Sep 1, 2014 at 5:00 PM


Visibility: 15 mi

Pressure: 29.81 "Hg

Humidity: 74%

Dew point: 70 °F

Location of VaughanLocation

Historic Weather in Vaughan — Graph

°F

Vaughan temperature yesterday

Maximum temperature yesterday: 84 °F (at 3:00 PM)
Minimum temperature yesterday: 68 °F (at 11:00 PM)
Average temperature yesterday: 77 °F

Past Weeks' High & Low Weather Summary

 TemperatureHumidityPressure
High88 °F (Aug 26, 6:00 PM)100% (Aug 18, 6:00 AM)30.21 "Hg (Aug 18, 6:00 AM)
Low50 °F (Aug 19, 4:00 AM)38% (Aug 28, 4:00 PM)29.84 "Hg (Aug 20, 2:00 AM)
Average68 °F76%30.02 "Hg
* Reported Aug 17 4:00 PM — Sep 1 4:03 PM, Vaughan, Weather by CustomWeather, © 2014

Note: Actual official high and low records may vary slightly from our data, if they occured in-between our weather recording intervals... More about our weather records

Advertising

Vaughan weather history for previous 24 hours

 ConditionsComfort  
Time TempWeatherWind HumidityBarometerVisibility
4:03 PM
Sep 1
N/ASprinkles.12 mphN/AN/A15 mi
3:00 PM79 °FPartly sunny.10 mph74%29.85 "Hg15 mi
2:00 PM79 °FPartly sunny.14 mph74%29.88 "Hg15 mi
1:00 PM77 °FMostly cloudy.10 mph79%29.90 "Hg12 mi
12:00 PM73 °FMostly cloudy.5 mph89%29.93 "Hg8 mi
11:45 AMN/ALow clouds.7 mphN/AN/A8 mi
11:00 AM70 °FDrizzle. Fog.5 mph94%29.94 "Hg1 mi
10:00 AM68 °FFog.3 mph94%29.95 "Hg2 mi
9:00 AM66 °FLow clouds.3 mph94%29.95 "Hg7 mi
8:00 AM64 °FLow clouds.5 mph94%29.96 "Hg15 mi
7:46 AMN/ALow clouds.No windN/AN/A15 mi
7:00 AM63 °FPassing clouds.No wind94%29.97 "Hg15 mi
6:00 AM63 °FPassing clouds.No wind94%29.96 "Hg15 mi
5:00 AM61 °FPassing clouds.2 mph100%29.97 "Hg15 mi
4:00 AM63 °FPassing clouds.No wind94%29.97 "Hg15 mi
3:00 AM63 °FPassing clouds.No wind94%29.96 "Hg15 mi
2:00 AM64 °FPassing clouds.No wind94%29.96 "Hg15 mi
1:00 AM64 °FPassing clouds.3 mph94%29.96 "Hg15 mi
12:00 AM66 °FPassing clouds.2 mph88%29.95 "Hg15 mi
11:00 PM
Aug 31
68 °FPassing clouds.6 mph88%29.95 "Hg15 mi
10:00 PM72 °FClear.5 mph78%29.95 "Hg15 mi
9:00 PM73 °FPassing clouds.3 mph69%29.94 "Hg15 mi
8:00 PM77 °FPassing clouds.5 mph61%29.93 "Hg15 mi
7:00 PM81 °FPassing clouds.10 mph54%29.91 "Hg15 mi
6:00 PM82 °FScattered clouds.7 mph51%29.90 "Hg15 mi
Weather by CustomWeather, © 2014

See weather overviewHow to use our weather pages